New Roads False River Regiona, LA

6:54 AM CDT on October 20, 2019 (GMT -0500)
False River

Weather History for KHZR - August, 2019

Change the Weather History Date:

Thursday, August 15, 2019

  Actual Average (KBTR) Record (KBTR)
Temperature  
Mean Temperature 83 °F -  
Max Temperature 91 °F 91 °F 98 °F (1951)
Min Temperature 75 °F 72 °F 58 °F (2004)
Cooling Degree Days 18    
Growing Degree Days 33 (Base 50)    
Moisture  
Dew Point 76 °F    
Average Humidity 85    
Maximum Humidity 100    
Minimum Humidity 55    
Precipitation  
Precipitation 0.00 in - - ()
Sea Level Pressure  
Sea Level Pressure 29.96 in    
Wind  
Wind Speed 1 mph (East)    
Max Wind Speed 10 mph    
Max Gust Speed -    
Visibility 9 miles    
Events      
Averages and records for this station are not official NWS values.
T = Trace of Precipitation, MM = Missing Value Source: NWS Daily Summary

Daily Weather History Graph

Daily Weather History Graph

Search for Another Location

Airport or City:

Astronomy

Aug. 15, 2019 Rise Set
Actual Time 6:32 AM CDT 7:48 PM CDT
Civil Twilight 6:06 AM CDT 8:13 PM CDT
Nautical Twilight 5:36 AM CDT 8:43 PM CDT
Astronomical Twilight 5:05 AM CDT 9:14 PM CDT
Moon 8:15 PM CDT (8/15) 6:30 AM CDT (8/15)
Length of Visible Light 14h 06m
Length of Day
13h 15m
Full, 100% of the Moon is Illuminated
Aug 15
Full
Aug 23
Last Quarter
Aug 30
New
Sep 5
First Quarter
Sep 13
Full

Hourly Weather History & Observations

Time (CDT) Temp. Heat Index Dew Point Humidity Pressure Visibility Wind Dir Wind Speed Gust Speed Precip Events Conditions
12:37 AM 77.0 °F - 77.0 °F 100% 29.96 in 7.0 mi Calm Calm - N/A   Scattered Clouds
12:56 AM 77.0 °F - 75.2 °F 94% 29.96 in 7.0 mi Calm Calm - N/A   Clear
1:37 AM 77.0 °F - 75.2 °F 94% 29.95 in 7.0 mi Calm Calm - N/A   Clear
1:56 AM 77.0 °F - 75.2 °F 94% 29.94 in 7.0 mi Calm Calm - N/A   Clear
2:17 AM 75.2 °F - 75.2 °F 100% 29.94 in 7.0 mi Calm Calm - N/A   Clear
2:56 AM 77.0 °F - 77.0 °F 100% 29.94 in 7.0 mi Calm Calm - N/A   Clear
3:19 AM 77.0 °F - 77.0 °F 100% 29.95 in 10.0 mi NNW 3.5 mph - N/A   Clear
3:36 AM 78.8 °F - 77.0 °F 94% 29.96 in 10.0 mi Calm Calm - N/A   Clear
3:56 AM 77.0 °F - 77.0 °F 100% 29.96 in 7.0 mi Calm Calm - N/A   Clear
4:17 AM 77.0 °F - 77.0 °F 100% 29.95 in 7.0 mi Calm Calm - N/A   Clear
4:37 AM 77.0 °F - 77.0 °F 100% 29.95 in 7.0 mi Calm Calm - N/A   Clear
4:56 AM 77.0 °F - 77.0 °F 100% 29.95 in 7.0 mi Calm Calm - N/A   Clear
5:16 AM 77.0 °F - 77.0 °F 100% 29.95 in 7.0 mi Calm Calm - N/A   Clear
5:36 AM 77.0 °F - 77.0 °F 100% 29.96 in 5.0 mi Calm Calm - N/A   Clear
5:58 AM 77.0 °F - 77.0 °F 100% 29.96 in 7.0 mi Calm Calm - N/A   Scattered Clouds
6:16 AM 77.0 °F - 77.0 °F 100% 29.96 in 5.0 mi Calm Calm - N/A   Clear
6:36 AM 77.0 °F - 77.0 °F 100% 29.97 in 7.0 mi Calm Calm - N/A   Mostly Cloudy
6:56 AM 77.0 °F - 77.0 °F 100% 29.97 in 5.0 mi Calm Calm - N/A   Overcast
7:16 AM 78.8 °F - 78.8 °F 100% 29.97 in 10.0 mi Calm Calm - N/A   Scattered Clouds
7:38 AM 78.8 °F - 78.8 °F 100% 29.98 in 10.0 mi Calm Calm - N/A   Clear
8:16 AM 78.8 °F - 78.8 °F 100% 29.99 in 10.0 mi Calm Calm - N/A   Mostly Cloudy
8:38 AM 80.6 °F 88.1 °F 78.8 °F 94% 29.98 in 10.0 mi Calm Calm - N/A   Scattered Clouds
8:56 AM 80.6 °F 88.1 °F 78.8 °F 94% 29.98 in 10.0 mi Calm Calm - N/A   Clear
9:17 AM 80.6 °F 87.1 °F 77.0 °F 89% 29.98 in 10.0 mi Calm Calm - N/A   Clear
9:35 AM 82.4 °F 90.9 °F 77.0 °F 84% 29.98 in 10.0 mi Calm Calm - N/A   Clear
9:58 AM 84.2 °F 94.1 °F 77.0 °F 79% 29.98 in 10.0 mi ESE 3.5 mph - N/A   Clear
10:16 AM 84.2 °F 96.1 °F 78.8 °F 84% 29.99 in 10.0 mi East 4.6 mph - N/A   Clear
10:36 AM 84.2 °F 96.1 °F 78.8 °F 84% 29.99 in 10.0 mi ENE 3.5 mph - N/A   Clear
11:36 AM 87.8 °F 102.5 °F 78.8 °F 75% 29.99 in 10.0 mi Calm Calm - N/A   Scattered Clouds
11:56 AM 89.6 °F 99.8 °F 75.2 °F 62% 29.98 in 10.0 mi Calm Calm - N/A   Mostly Cloudy
12:16 PM 89.6 °F 104.7 °F 78.8 °F 70% 29.98 in 10.0 mi East 3.5 mph - N/A   Mostly Cloudy
12:38 PM 89.6 °F 99.8 °F 75.2 °F 62% 29.97 in 10.0 mi Calm Calm - N/A   Mostly Cloudy
12:58 PM 89.6 °F 99.8 °F 75.2 °F 62% 29.97 in 10.0 mi NE 3.5 mph - N/A   Mostly Cloudy
1:16 PM 91.4 °F 102.5 °F 75.2 °F 59% 29.96 in 10.0 mi Calm Calm - N/A   Mostly Cloudy
1:36 PM 89.6 °F 99.8 °F 75.2 °F 62% 29.96 in 10.0 mi NNE 4.6 mph - N/A   Mostly Cloudy
1:58 PM 91.4 °F 102.5 °F 75.2 °F 59% 29.95 in 10.0 mi East 5.8 mph - N/A   Scattered Clouds
2:16 PM 91.4 °F 102.5 °F 75.2 °F 59% 29.94 in 10.0 mi NE 5.8 mph - N/A   Scattered Clouds
2:36 PM 89.6 °F 99.8 °F 75.2 °F 62% 29.94 in 10.0 mi NNE 5.8 mph - N/A   Scattered Clouds
2:55 PM 89.6 °F 98.2 °F 73.4 °F 59% 29.92 in 10.0 mi Calm Calm - N/A   Scattered Clouds
3:15 PM 89.6 °F 99.8 °F 75.2 °F 62% 29.92 in 10.0 mi ENE 3.5 mph - N/A   Scattered Clouds
3:36 PM 89.6 °F 99.8 °F 75.2 °F 62% 29.92 in 10.0 mi Calm Calm - N/A   Clear
3:56 PM 91.4 °F 102.5 °F 75.2 °F 59% 29.91 in 10.0 mi ESE 3.5 mph - N/A   Clear
4:16 PM 91.4 °F 102.5 °F 75.2 °F 59% 29.90 in 10.0 mi East 4.6 mph - N/A   Clear
4:36 PM 91.4 °F 100.1 °F 73.4 °F 55% 29.90 in 10.0 mi East 5.8 mph - N/A   Clear
5:17 PM 91.4 °F 100.1 °F 73.4 °F 55% 29.92 in 10.0 mi SE 4.6 mph - N/A   Clear
5:56 PM 87.8 °F 102.5 °F 78.8 °F 75% 29.93 in 10.0 mi SSW 8.1 mph - N/A   Mostly Cloudy
6:15 PM 84.2 °F 92.3 °F 75.2 °F 74% 29.94 in 10.0 mi SSW 10.4 mph - N/A   Scattered Clouds
6:56 PM 82.4 °F 89.5 °F 75.2 °F 79% 29.94 in 10.0 mi SW 3.5 mph - N/A   Clear
7:16 PM 80.6 °F 86.2 °F 75.2 °F 84% 29.94 in 10.0 mi SW 3.5 mph - N/A   Clear
7:36 PM 80.6 °F 86.2 °F 75.2 °F 84% 29.95 in 10.0 mi Calm Calm - N/A   Clear
8:18 PM 78.8 °F - 75.2 °F 89% 29.95 in 10.0 mi WSW 3.5 mph - N/A   Clear
8:36 PM 78.8 °F - 75.2 °F 89% 29.95 in 10.0 mi WSW 3.5 mph - N/A   Clear
8:56 PM 77.0 °F - 75.2 °F 94% 29.95 in 10.0 mi Calm Calm - N/A   Clear
9:35 PM 77.0 °F - 75.2 °F 94% 29.96 in 10.0 mi Calm Calm - N/A   Clear
9:56 PM 77.0 °F - 75.2 °F 94% 29.97 in 10.0 mi Calm Calm - N/A   Clear
10:17 PM 75.2 °F - 75.2 °F 100% 29.97 in 10.0 mi Calm Calm - N/A   Clear
10:36 PM 75.2 °F - 75.2 °F 100% 29.97 in 7.0 mi Calm Calm - N/A   Clear
10:58 PM 75.2 °F - 75.2 °F 100% 29.97 in 10.0 mi Calm Calm - N/A   Clear
11:16 PM 75.2 °F - 75.2 °F 100% 29.96 in 10.0 mi Calm Calm - N/A   Clear
11:35 PM 75.2 °F - 75.2 °F 100% 29.96 in 10.0 mi Calm Calm - N/A   Clear
11:58 PM 75.2 °F - 75.2 °F 100% 29.95 in 10.0 mi Calm Calm - N/A   Clear